Location: Banios
(43.0451°N, 0.2335°E)
Time: 09:08:27
(UTC+00:00)

A-11 Canister half - Pass Details

Date: 21 May 2021
Orbit: 1527 x 1681 km, 47.3° (Epoch: 22 June)

Event Time Altitude Azimuth Distance (km) Brightness Sun altitude
Rises 10:21:38 0° 282° (WNW) 4,742 11.3 59.9°
Reaches altitude 10° 10:24:42 10° 284° (WNW) 3,776 10.9 60.3°
Maximum altitude 10:34:20 72° 9° (N) 1,685 10.2 61.6°
Drops below altitude 10° 10:44:18 10° 94° (E) 3,895 11.5 62.8°
Sets 10:47:30 0° 96° (E) 4,898 11.9 63.1°
